Lid_Strength_Index
0 -0 -0 -0 -1 -1 -0 -1 -1 -1 -1 -1 -1 -1 -1 -1 -1 -1 -1 -1 -0 -1 -1 -1 -1 -1 -0 -0 -0 -0 0 0 2 1 -0 -1 -1 -1 -1 -2 -2 -2 -1
-0 -0 -0 -0 -1 -0 -0 -1 -1 -1 -1 -1 -1 -1 -1 -1 -1 -1 -0 -1 -0 -0 -0 -0 -0 -0 -1 -1 -0 -1 -0 -0 1 1 -0 0 -1 -1 -1 -1 -1 -1 -2
0 0 0 0 -0 -0 -0 -1 -1 -1 -1 -1 -1 -1 -1 -1 -1 -1 -1 -1 -1 -0 -1 -0 -0 -0 -0 -0 -0 0 -0 -0 -0 1 1 -0 -0 -1 -1 -1 -1 -2 -1
0 0 0 0 -0 -0 -1 -1 -1 -1 -1 -1 -1 -1 -1 -1 -1 -1 -1 -1 -1 -1 -1 -1 -1 -0 -0 -0 -0 -0 -0 0 0 1 1 1 0 -1 -0 1 1 -0 -0
1 1 1 0 -0 -0 -0 -0 -1 -1 -1 -1 -1 -1 -1 -1 -0 -1 -1 -1 -1 -0 -1 -1 -1 -1 0 0 0 -1 -0 0 1 1 1 1 1 1 1 0 1 0 -0
1 1 1 0 0 0 0 -0 -0 -0 -1 -1 -0 -0 -0 -1 5 3 1 -0 -1 -0 0 -0 -1 -0 -0 2 2 2 1 0 1 1 1 2 1 1 0 1 1 2 2
1 1 1 0 1 0 0 0 1 0 -0 0 -0 -0 0 -0 6 5 3 -0 -0 -0 -1 -0 -0 -1 -0 -1 2 3 3 3 3 -0 1 1 1 0 -0 1 1 1 2
5 4 2 1 1 0 1 1 0 0 0 0 0 0 0 1 5 5 4 -1 -1 -1 -1 -1 -1 -1 2 1 -0 -0 -0 -1 -1 -0 -0 -0 -1 -1 -1 -0 0 0 0
6 5 4 3 3 3 1 1 0 0 0 0 0 0 1 3 7 7 3 -1 -0 0 -0 2 -0 2 7 7 -0 0 0 -0 2 3 4 4 4 4 2 -0 1 1 2
5 6 5 4 4 4 4 2 1 -0 0 0 0 1 3 3 9 8 4 -0 0 0 -0 -0 5 5 8 8 2 0 1 1 1 0 -1 -0 2 -0 4 -1 -0 2 2
6 6 5 4 4 4 3 2 2 1 -0 1 1 1 3 4 5 8 8 2 2 1 2 1 1 7 9 9 8 1 2 3 3 1 -0 -0 -1 -1 -1 -2 -2 0 2
6 7 6 6 6 5 3 3 2 2 2 2 1 1 2 3 8 8 9 8 6 2 2 3 3 8 9 8 6 7 7 5 0 0 0 0 0 0 -1 -1 -2 -2 -1
6 6 6 6 6 6 6 5 5 4 3 2 2 2 3 3 3 6 6 6 4 2 2 4 7 8 8 6 7 6 6 1 1 1 1 1 0 0 -1 -1 -2 -3 -3
6 5 5 5 5 5 7 7 6 5 4 5 5 4 3 2 3 3 2 1 2 1 2 -0 1 3 6 5 4 3 2 1 2 3 3 2 2 2 3 2 2 2 1
5 5 5 6 5 6 7 7 7 8 8 5 5 5 5 5 7 9 9 5 4 4 5 1 1 1 1 3 4 2 2 2 3 3 3 3 3 3 3 2 3 3 3
5 5 6 5 5 5 6 7 10 10 11 11 11 9 7 11 12 11 12 11 11 10 4 3 3 2 2 2 2 1 0 -0 0 2 3 3 3 2 2 2 3 4 4
5 5 6 6 5 6 6 6 8 9 11 12 12 11 11 12 11 11 11 11 10 8 4 3 3 2 2 2 2 2 2 1 0 1 1 0 2 3 3 3 2 2 3
5 8 5 6 6 7 7 7 7 7 7 7 11 10 11 11 11 11 11 9 5 5 4 4 4 3 3 3 2 2 2 2 2 2 2 1 1 1 2 2 2 2 2
6 6 6 6 6 6 6 6 6 6 6 6 6 9 9 11 11 11 11 6 6 6 6 6 5 5 5 4 3 3 3 3 3 3 3 3 3 3 3 3 3 5 4
5 6 5 6 7 6 6 6 6 6 6 6 7 8 7 7 7 7 7 7 7 7 6 6 6 6 6 5 5 5 5 6 5 5 5 5 5 5 5 5 5 5 5
4 5 4 5 4 4 4 4 5 5 5 5 5 8 12 7 6 6 6 6 7 7 7 7 7 7 6 6 6 7 7 8 7 7 7 7 6 7 6 7 7 7 7
3 4 4 4 3 3 4 3 4 4 4 3 4 6 9 6 5 5 6 6 6 6 6 6 6 7 6 6 7 8 8 8 8 8 8 8 8 9 9 9 9 9 9
2 3 3 3 3 4 4 4 4 4 3 3 3 3 3 3 4 4 5 5 5 5 5 6 6 7 7 7 7 8 8 8 8 7 8 8 8 8 8 9 9 9 9
2 2 2 3 3 3 3 3 3 6 4 4 4 4 4 4 4 4 5 5 5 5 5 6 7 8 8 8 8 8 8 8 8 9 9 9 9 9 8 8 9 9 8
2 2 2 2 2 3 3 3 3 3 3 3 3 3 3 3 3 3 4 4 5 5 5 6 7 7 8 8 8 8 10 14 11 11 9 9 9 9 9 9 9 9 8
3 4 3 2 2 2 2 2 2 2 3 2 2 2 2 2 2 2 3 3 3 4 4 5 6 7 7 7 7 10 12 13 11 12 10 10 10 9 9 8 8 8 8